| time (UTC) | temp C | wind direction | speed KPH | gust KPH | rain 1hr cm | rain 24hr cm | rain mn cm | humidity % | barometer mb |
| 20260504050521 | 2 | 0 | 0.0 | 0.0 | 0.00 | 0.00 | 0.00 | 87 | 1018.0 |
| 20260504045521 | 2 | 0 | 0.0 | 0.0 | 0.00 | 0.00 | 0.00 | 87 | 1018.2 |
| 20260504045020 | 2 | 0 | 0.0 | 0.0 | 0.00 | 0.00 | 0.00 | 86 | 1018.1 |
| 20260504044537 | 2 | 0 | 0.0 | 0.0 | 0.00 | 0.00 | 0.00 | 86 | 1018.1 |
| 20260504044021 | 3 | 0 | 0.0 | 0.0 | 0.00 | 0.00 | 0.00 | 87 | 1018.1 |
| 20260504043531 | 3 | 0 | 0.0 | 0.0 | 0.00 | 0.00 | 0.00 | 86 | 1018.0 |
| 20260504043037 | 3 | 0 | 0.0 | 0.0 | 0.00 | 0.00 | 0.00 | 86 | 1017.9 |
| 20260504042522 | 3 | 0 | 0.0 | 0.0 | 0.00 | 0.00 | 0.00 | 85 | 1017.8 |
| 20260504042022 | 3 | 0 | 0.0 | 0.0 | 0.00 | 0.00 | 0.00 | 85 | 1017.6 |
| 20260504041535 | 3 | 0 | 0.0 | 0.0 | 0.00 | 0.00 | 0.00 | 85 | 1017.8 |
| 20260504041020 | 3 | 0 | 0.0 | 0.0 | 0.00 | 0.00 | 0.00 | 85 | 1017.7 |
| 20260504040521 | 3 | 0 | 0.0 | 0.0 | 0.00 | 0.00 | 0.00 | 85 | 1017.6 |
| 20260504040041 | 3 | 0 | 0.0 | 0.0 | 0.00 | 0.00 | 0.00 | 84 | 1017.6 |
| 20260504035523 | 3 | 0 | 0.0 | 1.6 | 0.00 | 0.00 | 0.00 | 84 | 1017.6 |
| 20260504035021 | 3 | 0 | 0.0 | 1.6 | 0.00 | 0.00 | 0.00 | 84 | 1017.5 |
| 20260504034535 | 3 | 0 | 0.0 | 0.0 | 0.00 | 0.00 | 0.00 | 84 | 1017.5 |
| 20260504034021 | 4 | 0 | 0.0 | 1.6 | 0.00 | 0.00 | 0.00 | 83 | 1017.5 |
| 20260504033521 | 4 | 0 | 0.0 | 1.6 | 0.00 | 0.00 | 0.00 | 84 | 1017.5 |
| 20260504033040 | 4 | 0 | 0.0 | 1.6 | 0.00 | 0.00 | 0.00 | 83 | 1017.4 |
| 20260504032521 | 4 | 0 | 0.0 | 1.6 | 0.00 | 0.00 | 0.00 | 83 | 1017.4 |
| 20260504032021 | 4 | 0 | 0.0 | 1.6 | 0.00 | 0.00 | 0.00 | 82 | 1017.4 |
| 20260504031538 | 4 | 0 | 0.0 | 1.6 | 0.00 | 0.00 | 0.00 | 82 | 1017.5 |
| 20260504031021 | 5 | 0 | 0.0 | 0.0 | 0.00 | 0.00 | 0.00 | 82 | 1017.6 |
| 20260504030520 | 5 | 0 | 0.0 | 0.0 | 0.00 | 0.00 | 0.00 | 82 | 1017.5 |
| 20260504030040 | 5 | 0 | 0.0 | 0.0 | 0.00 | 0.00 | 0.00 | 81 | 1017.6 |
| 20260504025521 | 5 | 0 | 0.0 | 1.6 | 0.00 | 0.00 | 0.00 | 81 | 1017.5 |
| 20260504025021 | 5 | 0 | 0.0 | 1.6 | 0.00 | 0.00 | 0.00 | 81 | 1017.6 |
| 20260504024543 | 5 | 44 | 0.0 | 1.6 | 0.00 | 0.00 | 0.00 | 82 | 1017.7 |
| 20260504024024 | 5 | 0 | 0.0 | 0.0 | 0.00 | 0.00 | 0.00 | 81 | 1017.8 |
| 20260504023521 | 5 | 0 | 0.0 | 1.6 | 0.00 | 0.00 | 0.00 | 80 | 1017.7 |
| 20260504023035 | 5 | 0 | 0.0 | 3.2 | 0.00 | 0.00 | 0.00 | 81 | 1017.6 |
| 20260504022525 | 6 | 0 | 0.0 | 3.2 | 0.00 | 0.00 | 0.00 | 81 | 1017.6 |
| 20260504022020 | 6 | 0 | 0.0 | 1.6 | 0.00 | 0.00 | 0.00 | 80 | 1017.5 |
| 20260504021535 | 6 | 0 | 0.0 | 1.6 | 0.00 | 0.00 | 0.00 | 79 | 1017.6 |
| 20260504021020 | 6 | 0 | 0.0 | 0.0 | 0.00 | 0.00 | 0.00 | 79 | 1017.4 |
| 20260504020525 | 6 | 0 | 0.0 | 0.0 | 0.00 | 0.00 | 0.00 | 78 | 1017.3 |
| 20260504020035 | 6 | 0 | 0.0 | 0.0 | 0.00 | 0.00 | 0.00 | 79 | 1017.1 |
| 20260504015521 | 6 | 0 | 0.0 | 0.0 | 0.00 | 0.00 | 0.00 | 79 | 1017.1 |
| 20260504015024 | 7 | 0 | 0.0 | 0.0 | 0.00 | 0.00 | 0.00 | 76 | 1017.1 |
| 20260504014538 | 7 | 0 | 0.0 | 0.0 | 0.00 | 0.00 | 0.00 | 76 | 1016.9 |
| 20260504014024 | 7 | 0 | 0.0 | 0.0 | 0.00 | 0.00 | 0.00 | 76 | 1016.9 |
| 20260504013524 | 7 | 0 | 0.0 | 0.0 | 0.00 | 0.00 | 0.00 | 77 | 1017.1 |
| 20260504013038 | 7 | 0 | 0.0 | 1.6 | 0.00 | 0.00 | 0.00 | 76 | 1016.8 |
| 20260504012524 | 8 | 0 | 0.0 | 1.6 | 0.00 | 0.00 | 0.00 | 74 | 1016.8 |
| 20260504012025 | 8 | 0 | 0.0 | 1.6 | 0.00 | 0.00 | 0.00 | 74 | 1016.9 |
| 20260504011533 | 8 | 0 | 0.0 | 1.6 | 0.00 | 0.00 | 0.00 | 72 | 1016.7 |
| 20260504011025 | 8 | 0 | 0.0 | 1.6 | 0.00 | 0.00 | 0.00 | 71 | 1016.7 |
| 20260504010522 | 9 | 0 | 0.0 | 1.6 | 0.00 | 0.00 | 0.00 | 71 | 1016.7 |
| 20260504010036 | 9 | 0 | 0.0 | 0.0 | 0.00 | 0.00 | 0.00 | 71 | 1016.6 |
| 20260504005521 | 10 | 0 | 0.0 | 0.0 | 0.00 | 0.00 | 0.00 | 69 | 1016.6 |
| 20260504005021 | 10 | 0 | 0.0 | 1.6 | 0.00 | 0.00 | 0.00 | 64 | 1016.5 |
| 20260504004533 | 10 | 0 | 0.0 | 1.6 | 0.00 | 0.00 | 0.00 | 65 | 1016.3 |
| 20260504004021 | 11 | 0 | 0.0 | 1.6 | 0.00 | 0.00 | 0.00 | 64 | 1016.3 |
| 20260504003520 | 11 | 44 | 0.0 | 1.6 | 0.00 | 0.00 | 0.00 | 64 | 1016.3 |
| 20260504003041 | 12 | 0 | 0.0 | 1.6 | 0.00 | 0.00 | 0.00 | 59 | 1016.1 |
| 20260504002522 | 12 | 0 | 0.0 | 4.8 | 0.00 | 0.00 | 0.00 | 61 | 1016.1 |
| 20260504002112 | 13 | 0 | 0.0 | 4.8 | 0.00 | 0.00 | 0.00 | 59 | 1016.1 |
| 20260504001536 | 13 | 0 | 0.0 | 3.2 | 0.00 | 0.00 | 0.00 | 55 | 1016.1 |
| 20260504001027 | 13 | 353 | 0.0 | 3.2 | 0.00 | 0.00 | 0.00 | 54 | 1016.0 |
| 20260504000520 | 13 | 0 | 0.0 | 3.2 | 0.00 | 0.00 | 0.00 | 51 | 1016.1 |
| 20260504000056 | 14 | 120 | 0.0 | 3.2 | 0.00 | 0.00 | 0.00 | 53 | 1016.0 |
| 20260503235520 | 14 | 0 | 0.0 | 3.2 | 0.00 | 0.00 | 0.00 | 54 | 1016.1 |
| 20260503235021 | 15 | 120 | 0.0 | 3.2 | 0.00 | 0.00 | 0.00 | 49 | 1016.0 |
| 20260503234536 | 15 | 0 | 0.0 | 3.2 | 0.00 | 0.00 | 0.00 | 49 | 1016.0 |
| 20260503234021 | 15 | 0 | 0.0 | 3.2 | 0.00 | 0.00 | 0.00 | 51 | 1015.9 |
| 20260503233523 | 16 | 120 | 0.0 | 3.2 | 0.00 | 0.00 | 0.00 | 48 | 1015.9 |
| 20260503233039 | 16 | 0 | 0.0 | 3.2 | 0.00 | 0.00 | 0.00 | 45 | 1015.9 |
| 20260503232525 | 16 | 112 | 0.0 | 3.2 | 0.00 | 0.00 | 0.00 | 45 | 1015.7 |
| 20260503232020 | 16 | 69 | 0.0 | 3.2 | 0.00 | 0.00 | 0.00 | 47 | 1015.8 |
| 20260503231536 | 17 | 0 | 0.0 | 3.2 | 0.00 | 0.00 | 0.00 | 44 | 1015.8 |
| 20260503231024 | 17 | 0 | 0.0 | 4.8 | 0.00 | 0.00 | 0.00 | 39 | 1015.7 |
| 20260503230522 | 17 | 186 | 0.0 | 4.8 | 0.00 | 0.00 | 0.00 | 40 | 1015.6 |
| 20260503230035 | 17 | 0 | 1.6 | 4.8 | 0.00 | 0.00 | 0.00 | 39 | 1015.7 |
| 20260503225521 | 17 | 0 | 1.6 | 4.8 | 0.00 | 0.00 | 0.00 | 41 | 1015.6 |
| 20260503225027 | 17 | 272 | 1.6 | 4.8 | 0.00 | 0.00 | 0.00 | 39 | 1015.6 |
| 20260503224538 | 17 | 0 | 1.6 | 4.8 | 0.00 | 0.00 | 0.00 | 39 | 1015.7 |
| 20260503224021 | 18 | 129 | 1.6 | 4.8 | 0.00 | 0.00 | 0.00 | 38 | 1015.8 |
| 20260503223521 | 18 | 0 | 0.0 | 4.8 | 0.00 | 0.00 | 0.00 | 39 | 1015.7 |
| 20260503223035 | 18 | 0 | 0.0 | 4.8 | 0.00 | 0.00 | 0.00 | 40 | 1015.7 |
| 20260503222522 | 18 | 189 | 0.0 | 4.8 | 0.00 | 0.00 | 0.00 | 37 | 1015.6 |
| 20260503222021 | 18 | 341 | 1.6 | 4.8 | 0.00 | 0.00 | 0.00 | 38 | 1015.6 |
| 20260503221539 | 18 | 320 | 1.6 | 4.8 | 0.00 | 0.00 | 0.00 | 38 | 1015.7 |
| 20260503221021 | 18 | 315 | 1.6 | 4.8 | 0.00 | 0.00 | 0.00 | 38 | 1015.7 |
| 20260503220521 | 18 | 255 | 1.6 | 4.8 | 0.00 | 0.00 | 0.00 | 36 | 1015.7 |
| 20260503220036 | 18 | 94 | 1.6 | 4.8 | 0.00 | 0.00 | 0.00 | 39 | 1015.7 |
| 20260503215520 | 18 | 296 | 0.0 | 9.7 | 0.00 | 0.00 | 0.00 | 36 | 1015.8 |
| 20260503215021 | 18 | 293 | 1.6 | 11.3 | 0.00 | 0.00 | 0.00 | 38 | 1015.8 |
| 20260503214534 | 18 | 223 | 3.2 | 11.3 | 0.00 | 0.00 | 0.00 | 34 | 1015.7 |
| 20260503214020 | 18 | 330 | 3.2 | 9.7 | 0.00 | 0.00 | 0.00 | 36 | 1015.8 |
| 20260503213520 | 18 | 302 | 1.6 | 9.7 | 0.00 | 0.00 | 0.00 | 38 | 1015.8 |
| 20260503213040 | 18 | 9 | 1.6 | 9.7 | 0.00 | 0.00 | 0.00 | 37 | 1015.8 |
| 20260503212520 | 18 | 292 | 1.6 | 11.3 | 0.00 | 0.00 | 0.00 | 36 | 1015.9 |
| 20260503212024 | 18 | 289 | 0.0 | 11.3 | 0.00 | 0.00 | 0.00 | 38 | 1015.9 |
| 20260503211539 | 18 | 12 | 3.2 | 11.3 | 0.00 | 0.00 | 0.00 | 34 | 1016.0 |
| 20260503211026 | 18 | 318 | 3.2 | 9.7 | 0.00 | 0.00 | 0.00 | 34 | 1016.0 |
| 20260503210526 | 18 | 170 | 3.2 | 8.0 | 0.00 | 0.00 | 0.00 | 35 | 1016.0 |
| 20260503210036 | 18 | 293 | 3.2 | 6.4 | 0.00 | 0.00 | 0.00 | 35 | 1016.0 |
| 20260503205526 | 19 | 308 | 3.2 | 6.4 | 0.00 | 0.00 | 0.00 | 35 | 1016.0 |
| 20260503205027 | 19 | 58 | 1.6 | 4.8 | 0.00 | 0.00 | 0.00 | 38 | 1016.3 |
| 20260503204538 | 19 | 0 | 1.6 | 6.4 | 0.00 | 0.00 | 0.00 | 34 | 1016.2 |
| 20260503204026 | 19 | 201 | 1.6 | 6.4 | 0.00 | 0.00 | 0.00 | 35 | 1016.3 |
| 20260503203532 | 19 | 0 | 0.0 | 9.7 | 0.00 | 0.00 | 0.00 | 33 | 1016.3 |
| 20260503203044 | 19 | 203 | 4.8 | 9.7 | 0.00 | 0.00 | 0.00 | 36 | 1016.5 |
| 20260503202526 | 19 | 289 | 1.6 | 6.4 | 0.00 | 0.00 | 0.00 | 37 | 1016.5 |
| 20260503202029 | 19 | 164 | 1.6 | 6.4 | 0.00 | 0.00 | 0.00 | 37 | 1016.5 |
| 20260503201538 | 18 | 80 | 0.0 | 11.3 | 0.00 | 0.00 | 0.00 | 34 | 1016.6 |
| 20260503201024 | 18 | 348 | 1.6 | 11.3 | 0.00 | 0.00 | 0.00 | 36 | 1016.7 |
| 20260503200529 | 18 | 280 | 4.8 | 11.3 | 0.00 | 0.00 | 0.00 | 37 | 1016.8 |
| 20260503200037 | 19 | 292 | 1.6 | 6.4 | 0.00 | 0.00 | 0.00 | 37 | 1017.0 |
| 20260503195526 | 18 | 323 | 1.6 | 6.4 | 0.00 | 0.00 | 0.00 | 38 | 1017.0 |
| 20260503195026 | 18 | 204 | 1.6 | 8.0 | 0.00 | 0.00 | 0.00 | 35 | 1017.1 |
| 20260503194537 | 18 | 23 | 3.2 | 11.3 | 0.00 | 0.00 | 0.00 | 34 | 1017.1 |
| 20260503194026 | 18 | 308 | 3.2 | 11.3 | 0.00 | 0.00 | 0.00 | 37 | 1017.3 |
| 20260503193530 | 18 | 210 | 3.2 | 6.4 | 0.00 | 0.00 | 0.00 | 35 | 1017.4 |
| 20260503193042 | 18 | 305 | 3.2 | 11.3 | 0.00 | 0.00 | 0.00 | 35 | 1017.4 |
| 20260503192525 | 18 | 11 | 3.2 | 11.3 | 0.00 | 0.00 | 0.00 | 35 | 1017.5 |
| 20260503192029 | 18 | 194 | 4.8 | 8.0 | 0.00 | 0.00 | 0.00 | 33 | 1017.7 |
| 20260503191540 | 18 | 253 | 3.2 | 8.0 | 0.00 | 0.00 | 0.00 | 35 | 1017.8 |
| 20260503191027 | 17 | 142 | 1.6 | 11.3 | 0.00 | 0.00 | 0.00 | 38 | 1017.8 |
| 20260503190525 | 17 | 112 | 1.6 | 11.3 | 0.00 | 0.00 | 0.00 | 37 | 1017.9 |
| 20260503190040 | 17 | 189 | 3.2 | 11.3 | 0.00 | 0.00 | 0.00 | 39 | 1017.9 |
| 20260503185525 | 17 | 306 | 1.6 | 8.0 | 0.00 | 0.00 | 0.00 | 35 | 1017.9 |
| 20260503185025 | 17 | 108 | 3.2 | 9.7 | 0.00 | 0.00 | 0.00 | 40 | 1017.9 |
| 20260503184557 | 17 | 349 | 4.8 | 9.7 | 0.00 | 0.00 | 0.00 | 39 | 1017.9 |
| 20260503184026 | 17 | 345 | 3.2 | 8.0 | 0.00 | 0.00 | 0.00 | 37 | 1018.0 |
| 20260503183526 | 17 | 0 | 1.6 | 6.4 | 0.00 | 0.00 | 0.00 | 44 | 1018.0 |
| 20260503183036 | 17 | 39 | 0.0 | 8.0 | 0.00 | 0.00 | 0.00 | 46 | 1017.9 |
| 20260503182525 | 16 | 278 | 1.6 | 8.0 | 0.00 | 0.00 | 0.00 | 38 | 1018.0 |
| 20260503182025 | 16 | 324 | 1.6 | 12.9 | 0.00 | 0.00 | 0.00 | 44 | 1018.0 |
| 20260503181536 | 16 | 286 | 3.2 | 12.9 | 0.00 | 0.00 | 0.00 | 38 | 1018.3 |
| 20260503181028 | 16 | 360 | 3.2 | 12.9 | 0.00 | 0.00 | 0.00 | 37 | 1018.2 |
| 20260503180525 | 16 | 220 | 1.6 | 9.7 | 0.00 | 0.00 | 0.00 | 38 | 1018.3 |
| 20260503180037 | 16 | 331 | 1.6 | 12.9 | 0.00 | 0.00 | 0.00 | 38 | 1018.3 |
| 20260503175525 | 16 | 29 | 3.2 | 12.9 | 0.00 | 0.00 | 0.00 | 38 | 1018.4 |
| 20260503175025 | 16 | 169 | 3.2 | 8.0 | 0.00 | 0.00 | 0.00 | 33 | 1018.5 |
| 20260503174540 | 16 | 329 | 1.6 | 6.4 | 0.00 | 0.00 | 0.00 | 34 | 1018.6 |
| 20260503174028 | 16 | 336 | 1.6 | 4.8 | 0.00 | 0.00 | 0.00 | 40 | 1018.7 |
| 20260503173526 | 16 | 233 | 1.6 | 8.0 | 0.00 | 0.00 | 0.00 | 42 | 1018.7 |
| 20260503173037 | 16 | 29 | 1.6 | 11.3 | 0.00 | 0.00 | 0.00 | 38 | 1018.7 |
| 20260503172524 | 16 | 325 | 3.2 | 11.3 | 0.00 | 0.00 | 0.00 | 33 | 1018.9 |
| 20260503172025 | 16 | 204 | 1.6 | 12.9 | 0.00 | 0.00 | 0.00 | 43 | 1018.8 |
| 20260503171547 | 15 | 318 | 3.2 | 12.9 | 0.00 | 0.00 | 0.00 | 39 | 1018.8 |
| 20260503171026 | 15 | 75 | 1.6 | 11.3 | 0.00 | 0.00 | 0.00 | 36 | 1019.0 |
| 20260503170526 | 15 | 227 | 4.8 | 11.3 | 0.00 | 0.00 | 0.00 | 37 | 1019.0 |
| 20260503150524 | 11 | 58 | 1.6 | 4.8 | 0.00 | 0.00 | 0.00 | 62 | 1020.2 |
| 20260503131021 | 3 | 0 | 0.0 | 0.0 | 0.00 | 0.00 | 0.00 | 97 | 1019.9 |
| 20260503130523 | 3 | 0 | 0.0 | 0.0 | 0.00 | 0.00 | 0.00 | 97 | 1020.0 |
| 20260503110525 | 0 | 0 | 0.0 | 0.0 | 0.00 | 0.00 | 0.00 | 95 | 1018.6 |
| 20260503081538 | 1 | 0 | 0.0 | 0.0 | 0.00 | 0.00 | 0.00 | 91 | 1017.2 |
| 20260503081026 | 1 | 0 | 0.0 | 0.0 | 0.00 | 0.00 | 0.00 | 91 | 1017.2 |
| 20260503080524 | 1 | 0 | 0.0 | 0.0 | 0.00 | 0.00 | 0.00 | 90 | 1017.1 |
| 20260503072523 | 1 | 0 | 0.0 | 0.0 | 0.00 | 0.00 | 0.00 | 89 | 1016.9 |
| 20260503072022 | 1 | 0 | 0.0 | 0.0 | 0.00 | 0.00 | 0.00 | 89 | 1017.0 |
| 20260503071553 | 1 | 0 | 0.0 | 0.0 | 0.00 | 0.00 | 0.00 | 89 | 1016.9 |
| 20260503071022 | 1 | 0 | 0.0 | 0.0 | 0.00 | 0.00 | 0.00 | 89 | 1016.8 |
| 20260503070522 | 1 | 0 | 0.0 | 0.0 | 0.00 | 0.00 | 0.00 | 89 | 1016.8 |
| 20260503055021 | 3 | 0 | 0.0 | 0.0 | 0.00 | 0.00 | 0.00 | 86 | 1016.5 |
| 20260503054543 | 3 | 0 | 0.0 | 0.0 | 0.00 | 0.00 | 0.00 | 86 | 1016.4 |
| 20260503054022 | 3 | 0 | 0.0 | 0.0 | 0.00 | 0.00 | 0.00 | 86 | 1016.5 |
| 20260503053528 | 3 | 0 | 0.0 | 0.0 | 0.00 | 0.00 | 0.00 | 86 | 1016.5 |
| 20260503053038 | 3 | 0 | 0.0 | 0.0 | 0.00 | 0.00 | 0.00 | 87 | 1016.6 |
| 20260503052522 | 3 | 0 | 0.0 | 0.0 | 0.00 | 0.00 | 0.00 | 87 | 1016.7 |
| 20260503052022 | 3 | 0 | 0.0 | 0.0 | 0.00 | 0.00 | 0.00 | 87 | 1016.7 |
| 20260503051535 | 3 | 0 | 0.0 | 0.0 | 0.00 | 0.00 | 0.00 | 87 | 1016.8 |
| 20260503051021 | 3 | 0 | 0.0 | 0.0 | 0.00 | 0.00 | 0.00 | 87 | 1016.8 |